User: anonymous
Location: Unspecified
(0.0000°N, 0.0000°E)
Time: 11:07:12
(UTC+00:00)
Language:

Tiangong 1 - Orbit

View from above orbital plane
View from above orbital plane
View from above satellite
View from above satellite

Ground track
Ground track

The orbit data is extracted from the following two-line orbital elements,

1 37820U 11053A   14211.04012279  .00017540  00000-0  18197-3 0  2465
2 37820 042.7711 052.7876 0005254 261.6753 236.1424 15.64321544162786
Epoch (UTC): 30 July 2014 00:57:46
Eccentricity: 0.0005254
inclination: 42.7711°
perigee height: 371 km
apogee height: 379 km
right ascension of ascending node: 52.7876°
argument of perigee: 261.6753°
revolutions per day: 15.64321544
mean anomaly at epoch: 236.1424°
orbit number at epoch: 16278

The dashed part of the orbit path shows where the satellite is in the earth's shadow,  

DLR